Location: Albany
(35.0000°S, 118.0000°E)
Time: 01:12:56
(UTC-04:00)

Transit 2A - Visible Passes

Search period start: 25 June 2017 00:00
Search period end: 05 July 2017 00:00
Orbit: 599 x 960 km, 66.7° (Epoch: 24 June)

Date Brightness Start Highest point End Pass type
(mag) Time Alt. Az. Time Alt. Az. Time Alt. Az.
25 Jun 6.6 06:55:03 10° N 07:01:08 50° ENE 07:01:56 48° E visible
25 Jun 8.5 08:39:18 10° WNW 08:42:30 23° W 08:42:30 23° W visible
25 Jun 8.6 15:53:23 14° E 15:53:23 14° E 15:54:33 10° E visible
25 Jun 6.0 17:33:58 45° W 17:34:39 48° WNW 17:39:07 10° N visible
26 Jun 7.1 06:21:35 10° N 06:27:14 35° ENE 06:29:46 25° ESE visible
26 Jun 7.6 08:04:33 10° WNW 08:10:20 38° WSW 08:10:20 38° WSW visible
26 Jun 6.2 17:01:46 54° N 17:01:46 54° N 17:05:21 10° NNE visible
27 Jun 7.6 05:48:29 10° NNE 05:53:23 24° ENE 05:57:32 13° ESE visible
27 Jun 7.0 07:30:05 10° NW 07:36:17 53° WSW 07:38:05 41° SSW visible
27 Jun 7.7 16:29:38 23° NE 16:29:38 23° NE 16:31:22 10° NE visible
28 Jun 6.6 06:55:50 10° NNW 07:02:12 75° WSW 07:05:46 28° SSE visible
28 Jun 8.9 08:43:28 10° WSW 08:46:18 13° SW 08:46:18 13° SW visible
28 Jun 8.0 17:38:04 11° NW 17:38:04 11° NW 17:38:16 10° NW visible
29 Jun 6.4 06:21:49 10° NNW 06:28:11 79° ENE 06:33:21 16° SSE visible
29 Jun 8.5 08:07:47 10° W 08:12:04 19° SW 08:13:53 16° SSW visible
30 Jun 6.7 05:48:02 10° N 05:54:13 55° ENE 06:00:19 10° SE visible
30 Jun 8.3 07:32:37 10° WNW 07:37:46 25° SW 07:41:23 16° S visible
01 Jul 7.8 06:57:48 10° WNW 07:03:33 35° SW 07:08:48 12° S visible
02 Jul 7.3 06:23:16 10° NW 06:29:25 48° WSW 06:35:24 10° SSE visible
03 Jul 6.8 05:48:58 10° NW 05:55:19 69° WSW 06:01:31 10° SSE visible
03 Jul 8.9 07:37:10 10° WSW 07:39:36 12° SW 07:41:59 10° SSW visible
04 Jul 8.7 07:01:14 10° W 07:05:13 17° SW 07:09:07 10° S visible
